timestamp,wind_dir_avg,wind_spd_max_dir,wind_spd_avg,wind_spd_gust,battery_voltage,lat,long
2018-06-27 00:00:00+00:00,16.0,17.0,18.25,22.21,,47.59359,-54.27349
2018-06-27 00:10:00+00:00,14.0,11.0,16.44,19.13,,47.59359,-54.27349
2018-06-27 00:20:00+00:00,5.0,4.0,16.77,20.04,,47.59359,-54.27349
2018-06-27 00:30:00+00:00,4.0,4.0,17.3,19.77,,47.59359,-54.27349
2018-06-27 00:40:00+00:00,8.0,6.0,16.23,20.87,,47.59359,-54.27349
2018-06-27 00:50:00+00:00,11.0,15.0,16.75,19.49,,47.59359,-54.27349
2018-06-27 01:00:00+00:00,12.0,14.0,14.02,16.79,,47.59359,-54.27349
2018-06-27 01:10:00+00:00,8.0,11.0,15.18,17.12,,47.59359,-54.27349
2018-06-27 01:20:00+00:00,6.0,14.0,13.79,16.95,,47.59359,-54.27349
2018-06-27 01:30:00+00:00,5.0,9.0,15.68,18.74,,47.59359,-54.27349
2018-06-27 01:40:00+00:00,359.0,357.0,16.38,19.5,,47.59359,-54.27349
2018-06-27 01:50:00+00:00,1.0,4.0,14.97,17.26,,47.59359,-54.27349
2018-06-27 02:00:00+00:00,353.0,356.0,16.07,17.98,,47.59359,-54.27349
2018-06-27 02:10:00+00:00,356.0,353.0,13.23,15.98,,47.59359,-54.27349
2018-06-27 02:20:00+00:00,355.0,347.0,14.17,16.83,,47.59359,-54.27349
2018-06-27 02:30:00+00:00,356.0,357.0,13.94,16.08,,47.59359,-54.27349
2018-06-27 02:40:00+00:00,354.0,352.0,13.22,15.33,,47.59359,-54.27349
2018-06-27 02:50:00+00:00,355.0,353.0,13.32,16.35,,47.59359,-54.27349
2018-06-27 03:00:00+00:00,353.0,349.0,13.85,16.18,,47.59359,-54.27349
2018-06-27 03:10:00+00:00,348.0,353.0,13.52,15.74,,47.59359,-54.27349
2018-06-27 03:20:00+00:00,352.0,353.0,12.61,14.55,,47.59359,-54.27349
2018-06-27 03:30:00+00:00,358.0,0.0,13.11,15.36,,47.59359,-54.27349
2018-06-27 03:40:00+00:00,349.0,356.0,14.5,16.4,,47.59359,-54.27349
2018-06-27 03:50:00+00:00,355.0,357.0,14.47,15.82,,47.59359,-54.27349
2018-06-27 04:00:00+00:00,351.0,347.0,11.49,13.07,,47.59359,-54.27349
2018-06-27 04:10:00+00:00,337.0,336.0,11.93,14.17,,47.59359,-54.27349
2018-06-27 04:20:00+00:00,339.0,340.0,10.81,12.47,,47.59359,-54.27349
2018-06-27 04:30:00+00:00,337.0,331.0,12.03,14.62,,47.59359,-54.27349
2018-06-27 04:40:00+00:00,344.0,351.0,11.23,12.83,,47.59359,-54.27349
2018-06-27 04:50:00+00:00,329.0,327.0,11.39,12.8,,47.59359,-54.27349
2018-06-27 05:00:00+00:00,331.0,334.0,11.9,14.05,,47.59359,-54.27349
2018-06-27 05:10:00+00:00,321.0,320.0,12.85,15.28,,47.59359,-54.27349
2018-06-27 05:20:00+00:00,318.0,318.0,12.07,14.05,,47.59359,-54.27349
2018-06-27 05:30:00+00:00,321.0,331.0,11.51,13.28,,47.59359,-54.27349
2018-06-27 05:40:00+00:00,321.0,315.0,10.89,13.3,,47.59359,-54.27349
2018-06-27 05:50:00+00:00,314.0,312.0,10.93,14.55,,47.59359,-54.27349
2018-06-27 06:00:00+00:00,308.0,301.0,10.1,11.51,,47.59359,-54.27349
2018-06-27 06:10:00+00:00,325.0,329.0,10.04,12.13,,47.59359,-54.27349
2018-06-27 06:20:00+00:00,320.0,325.0,9.47,10.46,,47.59359,-54.27349
2018-06-27 06:30:00+00:00,324.0,322.0,8.55,9.8,,47.59359,-54.27349
2018-06-27 06:40:00+00:00,320.0,317.0,8.92,10.32,,47.59359,-54.27349
2018-06-27 06:50:00+00:00,318.0,320.0,11.11,13.56,,47.59359,-54.27349
2018-06-27 07:00:00+00:00,320.0,320.0,10.72,13.42,,47.59359,-54.27349
2018-06-27 07:10:00+00:00,322.0,319.0,8.48,9.45,,47.59359,-54.27349
2018-06-27 07:20:00+00:00,309.0,316.0,8.62,10.74,,47.59359,-54.27349
2018-06-27 07:30:00+00:00,291.0,287.0,8.12,8.88,,47.59359,-54.27349
2018-06-27 07:40:00+00:00,277.0,288.0,6.15,6.62,,47.59359,-54.27349
2018-06-27 07:50:00+00:00,283.0,289.0,6.48,7.65,,47.59359,-54.27349
2018-06-27 08:00:00+00:00,283.0,283.0,6.66,7.7,,47.59359,-54.27349
2018-06-27 08:10:00+00:00,274.0,279.0,7.22,8.03,,47.59359,-54.27349
2018-06-27 08:20:00+00:00,272.0,274.0,7.93,8.93,,47.59359,-54.27349
2018-06-27 08:30:00+00:00,272.0,278.0,7.28,8.66,,47.59359,-54.27349
2018-06-27 08:40:00+00:00,267.0,268.0,5.39,5.9,,47.59359,-54.27349
2018-06-27 08:50:00+00:00,236.0,245.0,4.66,5.25,,47.59359,-54.27349
2018-06-27 09:00:00+00:00,219.0,221.0,6.51,7.1,,47.59359,-54.27349
2018-06-27 09:10:00+00:00,232.0,230.0,6.81,7.66,,47.59359,-54.27349
2018-06-27 09:20:00+00:00,217.0,218.0,7.43,7.99,,47.59359,-54.27349
2018-06-27 09:30:00+00:00,220.0,217.0,8.99,10.44,,47.59359,-54.27349
2018-06-27 09:40:00+00:00,218.0,220.0,5.3,5.91,,47.59359,-54.27349
2018-06-27 09:50:00+00:00,225.0,226.0,6.19,7.04,,47.59359,-54.27349
2018-06-27 10:00:00+00:00,231.0,231.0,6.28,6.97,,47.59359,-54.27349
2018-06-27 10:10:00+00:00,231.0,230.0,6.78,7.36,,47.59359,-54.27349
2018-06-27 10:20:00+00:00,234.0,233.0,6.09,6.86,,47.59359,-54.27349
2018-06-27 10:30:00+00:00,220.0,224.0,5.77,6.32,,47.59359,-54.27349
2018-06-27 10:40:00+00:00,220.0,218.0,5.36,6.09,,47.59359,-54.27349
2018-06-27 10:50:00+00:00,217.0,218.0,6.41,6.86,,47.59359,-54.27349
2018-06-27 11:00:00+00:00,215.0,217.0,7.63,9.09,,47.59359,-54.27349
2018-06-27 11:10:00+00:00,217.0,215.0,6.08,7.12,,47.59359,-54.27349
2018-06-27 11:20:00+00:00,214.0,216.0,4.54,5.25,,47.59359,-54.27349
2018-06-27 11:30:00+00:00,219.0,221.0,6.54,6.89,,47.59359,-54.27349
2018-06-27 11:40:00+00:00,222.0,221.0,6.29,6.91,,47.59359,-54.27349
2018-06-27 11:50:00+00:00,229.0,225.0,5.92,6.49,,47.59359,-54.27349
2018-06-27 12:00:00+00:00,227.0,230.0,6.66,7.58,,47.59359,-54.27349
2018-06-27 12:10:00+00:00,233.0,232.0,6.33,6.94,,47.59359,-54.27349
2018-06-27 12:20:00+00:00,266.0,266.0,6.63,7.31,,47.59359,-54.27349
2018-06-27 12:30:00+00:00,227.0,229.0,5.9,6.55,,47.59359,-54.27349
2018-06-27 12:40:00+00:00,221.0,219.0,8.31,9.24,,47.59359,-54.27349
2018-06-27 12:50:00+00:00,231.0,236.0,8.29,9.65,,47.59359,-54.27349
2018-06-27 13:00:00+00:00,267.0,272.0,6.99,7.88,,47.59359,-54.27349
2018-06-27 13:10:00+00:00,263.0,267.0,7.09,8.64,,47.59359,-54.27349
2018-06-27 13:20:00+00:00,266.0,267.0,6.44,7.17,,47.59359,-54.27349
2018-06-27 13:30:00+00:00,253.0,240.0,6.65,7.2,,47.59359,-54.27349
2018-06-27 13:40:00+00:00,247.0,248.0,7.28,8.17,,47.59359,-54.27349
2018-06-27 13:50:00+00:00,237.0,246.0,7.43,8.73,,47.59359,-54.27349
2018-06-27 14:00:00+00:00,228.0,222.0,6.43,7.16,,47.59359,-54.27349
2018-06-27 14:10:00+00:00,208.0,207.0,7.92,8.57,,47.59359,-54.27349
2018-06-27 14:20:00+00:00,218.0,221.0,8.38,8.86,,47.59359,-54.27349
2018-06-27 14:30:00+00:00,218.0,220.0,7.63,8.78,,47.59359,-54.27349
2018-06-27 14:40:00+00:00,215.0,215.0,8.14,9.01,,47.59359,-54.27349
2018-06-27 14:50:00+00:00,219.0,221.0,8.52,9.09,,47.59359,-54.27349
2018-06-27 15:00:00+00:00,217.0,219.0,8.84,9.62,,47.59359,-54.27349
2018-06-27 15:10:00+00:00,221.0,223.0,9.61,10.84,,47.59359,-54.27349
2018-06-27 15:20:00+00:00,219.0,221.0,9.85,10.81,,47.59359,-54.27349
2018-06-27 15:30:00+00:00,221.0,223.0,10.59,11.64,,47.59359,-54.27349
2018-06-27 15:40:00+00:00,220.0,220.0,12.12,13.25,,47.59359,-54.27349
2018-06-27 15:50:00+00:00,216.0,217.0,11.26,12.49,,47.59359,-54.27349
2018-06-27 16:00:00+00:00,215.0,215.0,10.97,12.5,,47.59359,-54.27349
2018-06-27 16:10:00+00:00,216.0,217.0,10.2,11.14,,47.59359,-54.27349
2018-06-27 16:20:00+00:00,218.0,218.0,9.75,10.53,,47.59359,-54.27349
2018-06-27 16:30:00+00:00,221.0,224.0,10.7,11.8,,47.59359,-54.27349
2018-06-27 16:40:00+00:00,220.0,220.0,10.82,12.03,,47.59359,-54.27349
2018-06-27 16:50:00+00:00,218.0,224.0,11.32,12.57,,47.59359,-54.27349
2018-06-27 17:00:00+00:00,220.0,223.0,10.35,11.69,,47.59359,-54.27349
2018-06-27 17:10:00+00:00,220.0,219.0,11.55,12.93,,47.59359,-54.27349
2018-06-27 17:20:00+00:00,219.0,226.0,11.96,13.39,,47.59359,-54.27349
2018-06-27 17:30:00+00:00,219.0,217.0,11.41,13.42,,47.59359,-54.27349
2018-06-27 17:40:00+00:00,218.0,218.0,12.25,14.05,,47.59359,-54.27349
2018-06-27 17:50:00+00:00,219.0,221.0,12.52,14.16,,47.59359,-54.27349
2018-06-27 18:00:00+00:00,219.0,223.0,12.81,14.58,,47.59359,-54.27349
2018-06-27 18:10:00+00:00,219.0,221.0,12.53,14.22,,47.59359,-54.27349
2018-06-27 18:20:00+00:00,219.0,224.0,12.37,15.24,,47.59359,-54.27349
2018-06-27 18:30:00+00:00,218.0,220.0,13.4,15.03,,47.59359,-54.27349
2018-06-27 18:40:00+00:00,218.0,219.0,12.9,13.98,,47.59359,-54.27349
2018-06-27 18:50:00+00:00,217.0,222.0,12.62,14.28,,47.59359,-54.27349
2018-06-27 19:00:00+00:00,217.0,217.0,12.46,14.25,,47.59359,-54.27349
2018-06-27 19:10:00+00:00,217.0,215.0,12.03,13.34,,47.59359,-54.27349
2018-06-27 19:20:00+00:00,214.0,217.0,12.12,13.84,,47.59359,-54.27349
2018-06-27 19:30:00+00:00,214.0,217.0,11.18,12.22,,47.59359,-54.27349
2018-06-27 19:40:00+00:00,213.0,216.0,11.59,12.52,,47.59359,-54.27349
2018-06-27 19:50:00+00:00,216.0,218.0,11.23,13.4,,47.59359,-54.27349
2018-06-27 20:00:00+00:00,217.0,219.0,11.05,12.5,,47.59359,-54.27349
2018-06-27 20:10:00+00:00,218.0,219.0,12.11,13.22,,47.59359,-54.27349
2018-06-27 20:20:00+00:00,217.0,218.0,11.76,12.93,,47.59359,-54.27349
2018-06-27 20:30:00+00:00,216.0,219.0,11.09,12.27,,47.59359,-54.27349
2018-06-27 20:40:00+00:00,215.0,217.0,10.62,11.88,,47.59359,-54.27349
2018-06-27 20:50:00+00:00,218.0,217.0,10.69,11.4,,47.59359,-54.27349
2018-06-27 21:00:00+00:00,216.0,219.0,10.36,11.21,,47.59359,-54.27349
2018-06-27 21:10:00+00:00,215.0,215.0,10.32,11.54,,47.59359,-54.27349
2018-06-27 21:20:00+00:00,216.0,217.0,10.66,11.81,,47.59359,-54.27349
2018-06-27 21:30:00+00:00,217.0,218.0,10.96,12.42,,47.59359,-54.27349
2018-06-27 21:40:00+00:00,219.0,217.0,10.82,12.37,,47.59359,-54.27349
2018-06-27 21:50:00+00:00,218.0,217.0,11.98,13.82,,47.59359,-54.27349
2018-06-27 22:00:00+00:00,220.0,220.0,11.13,12.91,,47.59359,-54.27349
2018-06-27 22:10:00+00:00,219.0,218.0,12.61,14.54,,47.59359,-54.27349
2018-06-27 22:20:00+00:00,222.0,223.0,11.19,12.69,,47.59359,-54.27349
2018-06-27 22:30:00+00:00,218.0,216.0,12.45,13.78,,47.59359,-54.27349
2018-06-27 22:40:00+00:00,220.0,222.0,12.16,14.07,,47.59359,-54.27349
2018-06-27 22:50:00+00:00,222.0,224.0,11.44,13.47,,47.59359,-54.27349
2018-06-27 23:00:00+00:00,224.0,220.0,10.23,11.54,,47.59359,-54.27349
2018-06-27 23:10:00+00:00,224.0,226.0,9.79,10.64,,47.59359,-54.27349
2018-06-27 23:20:00+00:00,224.0,223.0,9.77,10.6,,47.59359,-54.27349
2018-06-27 23:30:00+00:00,224.0,224.0,9.53,10.42,,47.59359,-54.27349
2018-06-27 23:40:00+00:00,222.0,221.0,9.43,10.54,,47.59359,-54.27349
2018-06-27 23:50:00+00:00,224.0,222.0,9.36,10.12,,47.59359,-54.27349
